CAPE
1060 1138 984 730 530 377 348 216 68 31 1 0 23 106 10 2 0 0 141 302 583 1058 1335 1415 1524 1522 1811 1958 1980 1962 2233 2470 2374 2310 2429 2321 2226 2278 2192 2287 2254 2282 2451 2400 2333 2288 2295 2322 2353 2376 2614 2590 2279 1902 2200 2675 2348 2144 1981 2023 2006 1769 1622 1580 1531 1511 1584 1728 1904 2056 2270 2572 2778 2798 2786 2780 2739 2694 2706 2748 2880 2985 3029 2988 2985
957 1150 1137 955 730 528 415 323 170 72 39 0 0 24 123 49 4 0 12 173 365 324 386 925 1322 1496 1661 1817 1834 1870 2086 2342 2460 2351 2379 2465 2362 2311 2363 2292 2247 2196 2321 2550 2479 2200 2099 2124 2228 2250 2539 2591 2516 2380 2477 2311 2571 2396 2187 2284 2240 2179 2084 2053 2053 2125 2077 2140 2302 2350 2448 2631 2779 2852 2870 2857 2907 2962 3047 3138 3169 3160 3153 3157 3234
790 1062 1144 1075 914 736 517 437 309 164 85 25 0 0 29 181 179 75 40 86 362 442 313 329 701 1287 1577 1746 1806 1816 1995 2223 2406 2448 2390 2444 2468 2395 2394 2403 2348 2214 2196 2329 2450 2342 2115 2077 2114 2205 2332 2551 2506 2534 2539 2434 2355 2423 2437 2304 2354 2322 2290 2286 2277 2283 2307 2372 2385 2519 2622 2752 2860 2908 2942 3028 3105 3164 3241 3293 3324 3375 3410 3435 3475
887 933 1090 1093 1006 859 697 504 432 307 180 82 13 0 0 29 380 339 237 194 260 562 535 401 427 847 1337 1623 1752 1812 1906 2111 2305 2458 2469 2429 2455 2449 2381 2392 2443 2367 2225 2227 2262 2404 2373 2226 2257 2328 2347 2371 2478 2491 2515 2619 2552 2487 2464 2485 2491 2515 2526 2582 2485 2487 2498 2516 2547 2611 2717 2827 2924 2989 3089 3167 3233 3333 3388 3418 3495 3536 3551 3582 3651
1065 955 937 1082 1038 934 801 647 564 427 312 182 71 9 0 0 98 518 526 494 400 428 745 736 635 721 1047 1364 1609 1749 1858 1993 2155 2353 2466 2469 2441 2416 2386 2364 2396 2415 2361 2290 2475 2147 2308 2457 2530 2566 2591 2402 2386 2440 2532 2585 2655 2680 2677 2687 2713 2745 2723 2633 2636 2624 2627 2641 2697 2744 2866 2897 2912 3001 3184 3317 3358 3356 3412 3511 3567 3569 3561 3594 3628
1246 1093 1058 1030 998 931 878 685 612 517 411 296 153 49 13 0 0 199 642 682 683 519 536 872 911 847 942 1139 1388 1602 1766 1908 2023 2149 2335 2453 2469 2438 2367 2332 2341 2408 2391 2326 2287 2256 2130 2261 2399 2520 2589 2670 2524 2417 2501 2606 2641 2672 2659 2587 2562 2616 2697 2693 2678 2688 2802 2841 2861 2918 2699 2378 2558 2767 3056 3264 3376 3510 3613 3632 3522 3435 3290 3096 3390
1460 1312 1202 1138 1074 1030 1017 934 783 579 509 424 263 127 49 13 0 6 335 667 793 815 635 694 1022 1053 1015 1056 1171 1388 1582 1748 1906 2004 2110 2271 2389 2418 2387 2315 2277 2286 2372 2398 2358 2356 2360 2293 2332 2371 2417 2508 2634 2586 2465 2545 2667 2766 2788 2703 2520 2450 2503 2512 2577 2672 2733 2752 2707 2640 2730 2898 3106 3210 3241 3350 3532 3606 3550 3335 3049 2905 3177 3792 3991
1596 1498 1388 1295 1222 1173 1116 1072 1008 864 630 502 410 251 150 87 29 4 90 416 646 844 862 728 812 1115 1172 1138 1148 1235 1396 1542 1706 1879 1977 2062 2224 2326 2351 2315 2250 2210 2218 2323 2419 2432 2421 2485 2487 2526 2541 2497 2482 2541 2588 2620 2664 2738 2797 2790 2686 2582 2515 2461 2477 2624 2736 2791 2850 2884 2921 2978 3014 3157 3354 3445 3415 3356 3152 2932 3041 3278 4001 4119 4014
1786 1697 1591 1524 1422 1455 1265 1205 1157 1085 1008 841 498 456 334 264 201 119 140 313 561 704 880 849 782 952 1206 1259 1250 1265 1338 1433 1552 1690 1820 1911 1992 2138 2231 2246 2222 2202 2158 2146 2222 2319 2320 2366 2454 2498 2549 2968 2720 2562 2506 2518 2565 2604 2638 2604 2551 2474 2447 2479 2579 2629 2597 2601 2683 2743 2866 3008 3087 3131 3180 3234 3315 3239 3157 3206 3272 4021 4223 3900 3439
2152 2032 2003 1978 1934 1922 1770 1492 1376 1296 1240 1195 1030 698 533 469 470 420 341 378 523 686 825 925 864 855 1089 1296 1337 1346 1396 1436 1599 1660 1732 1778 1819 1912 2068 2152 2192 2187 2175 2156 2156 2221 2296 2313 2373 3141 3103 3143 2787 2710 2678 2646 2623 2567 2566 2502 2398 2402 2483 2615 2678 2695 2722 2783 2839 2853 2848 2874 2943 3088 3245 3297 3290 3310 3299 3466 3937 3856 3624 3239 2889
2475 2561 2509 2499 2339 2306 2100 1982 1758 1641 1589 1530 1479 1221 769 640 637 663 637 590 669 781 880 966 991 914 962 1227 1391 1424 1480 1515 1544 1651 1781 1805 1767 1775 1868 2025 2110 2150 2142 2136 2136 2162 2227 2278 2304 2858 3774 3924 3362 2865 2724 2703 2699 2717 2732 2718 2683 2548 2555 2602 2638 2639 2674 2734 2748 2802 2945 3049 3138 3218 3266 3304 3280 3284 3223 3626 3124 2979 2956 3050 3174
2495 2632 2664 2680 2605 2572 2314 2025 2195 2244 2070 2014 1903 1597 1206 828 716 745 808 808 824 911 970 990 1066 1045 994 1093 1329 1455 1521 1586 1605 1625 1742 1834 1816 1729 1730 1837 1975 2065 2100 2098 2059 2037 2103 2210 2277 2288 2416 2816 2954 2989 2933 2821 2740 2706 2712 2748 2771 2732 2640 2607 2650 2685 2714 2774 2813 2913 3013 3123 3173 3213 3256 3146 3008 2777 2834 2648 2424 2655 2924 3097 3281
2088 2468 2750 2739 2626 2519 2485 2423 2084 2243 2471 2519 2324 1986 1552 1184 857 774 840 931 948 1000 1063 1068 1099 1145 1120 1088 1191 1399 1536 1612 1692 1700 1694 1759 1826 1766 1660 1683 1789 1914 1993 2020 2000 1942 1909 1966 2102 2214 2241 3042 3509 2964 2811 2784 2775 2707 2622 2604 2658 2721 2732 2776 2729 2656 2664 2705 2820 2905 3019 3185 3262 3170 2741 2215 2289 1973 1873 1939 2084 2377 2641 3090 3343
1680 1948 2249 2413 2404 2175 2155 2199 2147 2212 2536 2665 2637 2406 2008 1488 1146 855 835 975 1065 1074 1108 1134 1138 1178 1214 1201 1185 1297 1460 1570 1698 1758 1753 1749 1778 1794 1701 1618 1631 1748 1865 1939 1973 1976 1930 1872 1878 1964 2126 2327 2532 2734 2790 2790 2750 2680 2589 2506 2461 2460 2510 2599 2758 3036 3111 3145 3111 3058 2998 2882 2662 2261 2082 2030 1915 1996 2145 2284 2430 2545 2656 3146 3656
1395 1726 1816 2018 2086 2031 1937 1927 2064 2127 2326 2648 2774 2679 2472 1987 1428 1121 884 990 1134 1188 1176 1174 1180 1198 1254 1283 1282 1317 1440 1546 1635 1734 1772 1765 1759 1786 1719 1639 1586 1622 1753 1881 1970 2014 2034 2006 1926 1911 1968 2110 2253 2369 2461 2487 2494 2483 2421 2337 2232 2160 2151 2200 2302 2419 2816 3146 3122 2950 2729 2428 2253 2274 2445 2416 2383 2582 2660 2667 2690 2677 3032 3642 3657
1792 1894 1856 1801 1716 1814 1800 1748 1809 2082 2355 2557 2772 2845 2765 2529 1916 1394 1065 1020 1180 1272 1290 1247 1227 1208 1243 1314 1358 1383 1466 1588 1679 1745 1800 1799 1765 1756 1721 1651 1595 1584 1651 1784 1912 2008 2049 2072 2095 2087 2068 2087 2134 2225 2306 2313 2286 2266 2223 2158 2075 1984 1933 1918 1945 2047 2124 2165 2217 2226 2192 2204 2645 2975 3114 3255 3311 3314 3256 3126 3027 3425 3730 3675 3387
1564 1881 1864 1835 1742 1634 1642 1648 1750 2166 2439 2585 2687 2802 2902 2770 2526 1959 1370 1109 1228 1354 1407 1401 1350 1278 1260 1320 1413 1454 1496 1572 1706 1799 1877 1929 1900 1806 1720 1642 1589 1581 1618 1666 1811 1953 2031 2059 2102 2134 2155 2149 2121 2104 2128 2230 2287 2311 2255 2105 2023 1947 1899 1834 1795 1813 1898 1995 2083 2169 2261 2831 3340 3624 3686 3646 3593 3514 3541 3488 3442 3549 3527 3313 3077
1511 1545 1502 1547 1524 1482 1507 1553 1892 2300 2464 2592 2713 2758 2842 2888 2720 2446 1824 1358 1185 1368 1472 1497 1485 1432 1371 1338 1422 1508 1545 1613 1704 1785 1859 1960 2002 1963 1860 1744 1621 1578 1643 1657 1684 1795 2039 2533 2633 2082 2064 2074 2084 2077 2079 2090 2092 2054 1985 2086 2185 2255 2276 2279 2422 2416 2366 2367 2509 2852 3385 3672 3854 3829 3674 3518 3462 3302 3314 3421 3463 3287 3176 3136 3189
2134 1946 1603 1600 1533 1446 1547 1777 2138 2441 2551 2612 2723 2830 2878 2928 2831 2639 2202 1608 1288 1390 1522 1557 1566 1546 1499 1448 1403 1513 1559 1633 1764 1860 1891 1896 1957 1963 1916 1848 1769 1718 1728 1762 1776 1776 1783 2312 3111 2593 2163 2116 2104 2124 2160 2172 2127 1988 1852 1796 2022 2330 2562 2836 3132 3598 3697 3806 3881 3831 3655 3423 3359 3449 3434 3396 3358 3287 3279 3356 3491 3455 3317 3315 3288
2200 2197 2168 1893 1505 1551 1554 2030 2358 2574 2657 2698 2781 2898 2968 2977 2934 2716 2366 1869 1429 1433 1523 1612 1615 1619 1595 1552 1490 1519 1566 1620 1739 1956 2038 2004 1957 1928 1890 1882 1864 1870 1896 1920 1946 1969 1967 1922 1930 2444 2603 2362 2284 2237 2171 2094 2019 1915 1806 1704 1703 1948 2297 2947 3432 3682 3808 3692 3495 3504 3528 3693 3650 3630 3599 3544 3485 3357 3291 3302 3360 3375 3325 3347 3443
2243 2391 2316 2228 1942 1590 1632 2004 2466 2701 2724 2767 2836 2960 2982 3003 2975 2822 2453 2247 1719 1459 1472 1584 1659 1685 1668 1631 1570 1491 1622 1700 1765 1911 2134 2213 2168 2059 1946 1914 1923 1972 2039 2105 2160 2218 2240 2196 2104 2017 2332 2544 2509 2364 2260 2144 2044 1974 1917 1865 1826 1825 1964 2391 2921 4074 3164 3192 3349 3502 3680 3835 3731 3684 3682 3573 3493 3426 3360 3317 3314 3374 3396 3490 3583
2541 3114 3038 2640 2357 2142 1742 2011 2495 2750 2807 2828 2907 2969 2995 2979 2953 2899 2563 2359 2139 1662 1510 1527 1631 1701 1720 1712 1670 1605 1595 1787 1882 1933 2103 2308 2394 2357 2193 2109 2116 2200 2282 2346 2408 2443 2442 2390 2264 2105 2057 2421 2721 2808 2725 2599 2520 2433 2342 2204 2054 2013 2142 2322 3028 3511 3120 3200 3253 3288 3462 3770 3746 3689 3740 3895 3937 3859 3729 3661 3647 3652 3729 3697 3684
2631 3390 3816 3793 3204 2456 2294 2077 2437 2796 2866 2842 2859 2923 2960 2965 2926 2864 2695 2416 2268 2065 1729 1534 1586 1674 1728 1736 1717 1688 1641 1625 1920 2051 2147 2282 2472 2543 2506 2381 2361 2425 2447 2489 2503 2517 2510 2457 2326 2181 2030 1908 2041 2281 2599 2899 2931 2908 2834 2680 2516 2362 2592 2714 2885 3261 3192 3185 3161 3164 3169 3216 3343 3493 3587 3573 3420 3301 3253 3124 3342 3435 3298 3162 3115
2433 2998 3663 3918 3733 3379 2912 2419 2412 2739 2895 2888 2874 2899 2928 2931 2906 2830 2716 2491 2322 2214 2073 1695 1596 1618 1707 1749 1753 1738 1740 1715 1646 1912 2156 2312 2439 2610 2704 2704 2625 2599 2584 2531 2480 2450 2433 2392 2330 2230 2090 1935 1768 1677 1655 1792 2325 2796 3018 3072 2989 2908 2907 2942 3036 3126 3163 3168 3148 3139 3144 3122 3089 3046 3038 3014 2977 2860 2706 2537 2453 2489 2442 2422 2164
2270 2849 3554 3670 3650 3482 3174 2692 2515 2778 2872 2903 2880 2871 2873 2866 2858 2815 2705 2539 2396 2255 2235 2012 1694 1626 1643 1738 1784 1790 1778 1810 1772 1696 1733 2016 2347 2539 2702 2827 2884 2835 2756 2606 2518 2472 2432 2363 2295 2219 2130 2039 1929 1809 1700 1644 1632 1704 2188 2728 2999 3121 3144 3133 3136 3148 3178 3192 3211 3208 3188 3180 3142 3072 2954 2851 2661 2470 2283 2144 2015 2016 1997 1975 2175
2232 2703 3332 3503 3526 3487 3472 3194 2599 2887 2955 2922 2908 2876 2838 2848 2831 2777 2679 2577 2446 2317 2302 2186 1954 1663 1617 1705 1782 1835 1870 1856 1878 1846 1802 1755 1856 2150 2452 2628 2770 2834 2784 2626 2532 2469 2411 2349 2292 2240 2195 2140 2077 2066 2073 2101 2099 2034 1941 1813 1930 2219 2492 2747 2937 3042 3106 3149 3192 3239 3259 3248 3219 3107 2894 2626 2448 2326 2095 2000 1973 1985 2025 2177 2268
2334 3043 3324 3325 3356 3389 3529 3574 2858 2912 3046 3034 3002 2954 2910 2858 2799 2722 2659 2617 2484 2382 2354 2307 2185 1925 1630 1723 1852 1933 2017 2031 2038 2050 2068 2040 1988 1929 1927 2104 2261 2363 2420 2440 2410 2359 2302 2274 2277 2270 2239 2197 2182 2229 2253 2262 2313 2374 2426 2426 2398 2360 2263 2287 2633 2857 3017 3096 3144 3206 3253 3188 2958 2620 2310 2243 2262 2089 1987 2024 2082 2107 2228 2245 2073
2641 2850 2903 2973 3094 3261 3510 3806 3245 2963 3123 3124 3081 3031 2966 2898 2817 2758 2727 2654 2558 2476 2423 2385 2354 2172 1936 1753 1938 2089 2177 2210 2204 2220 2251 2273 2255 2222 2162 2088 2006 2012 2100 2155 2201 2201 2211 2218 2237 2239 2218 2238 2288 2336 2386 2445 2508 2642 2795 2832 2793 2832 2858 2798 2770 2818 2902 2986 3087 3126 3099 2904 2566 2211 2025 2205 2275 2141 2078 2113 2152 2285 2265 2222 2077
2344 2542 2640 2852 3135 3353 3635 3854 3392 2980 3212 3261 3216 3146 3079 3004 2943 2884 2819 2706 2628 2586 2554 2498 2447 2344 2129 1918 1827 2116 2246 2340 2384 2359 2380 2418 2425 2419 2410 2379 2333 2249 2134 2068 2091 2079 2133 2189 2213 2214 2216 2316 2406 2485 2614 2810 3012 3167 3290 3368 3372 3243 3127 3111 3134 3162 3139 3117 3090 3047 2891 2523 2396 2278 2105 2248 2315 2244 2140 2156 2176 2234 2238 2167 1879
1659 1935 2228 2713 3111 3447 3740 3721 3435 3002 3293 3364 3428 3354 3288 3277 3207 3108 3024 2865 2821 2776 2711 2668 2575 2472 2382 2182 1956 1893 2203 2316 2418 2526 2553 2565 2566 2502 2448 2397 2406 2398 2356 2310 2180 2097 2035 2068 2106 2121 2166 2279 2402 2505 2625 2733 2850 2990 3168 3364 3488 3487 3380 3209 3240 3400 3390 3345 3237 3021 2710 2574 2512 2380 2159 2151 2137 2139 2188 2187 2172 2095 1940 1744 1600
1311 1685 2000 2234 2673 3369 3848 3790 3479 2882 3275 3461 3522 3579 3603 3520 3416 3306 3377 3267 3016 2918 2850 2814 2740 2711 2647 2539 2300 2032 2023 2173 2335 2494 2594 2680 2686 2654 2572 2492 2427 2461 2494 2512 2487 2415 2301 2179 2166 2160 2160 2178 2309 2392 2469 2523 2576 2644 2757 2894 3105 3313 3421 3410 3386 3452 3551 3459 3248 2859 2783 2761 2698 2474 2047 1981 2020 2192 2343 2237 2105 1988 1758 1587 1531
1257 1442 1686 2008 2570 3133 3792 3804 3621 3171 3156 3456 3641 3804 3864 3815 3672 3538 3510 3499 3410 3255 3089 3013 2981 2971 2907 2821 2736 2590 2370 2065 2096 2248 2411 2560 2705 2781 2782 2726 2678 2623 2633 2613 2642 2619 2540 2460 2426 2416 2385 2349 2337 2362 2429 2497 2535 2558 2567 2580 2720 2808 2976 3103 3321 3498 3547 3398 3036 2894 2848 2686 2574 2529 2349 2106 2126 2201 2234 2177 2017 1717 1487 1373 1496
1164 1356 1563 1885 2371 2948 3718 3865 3663 3333 3112 3370 3672 3731 3766 3722 3692 3742 3730 3724 3740 3709 3656 3617 3528 3332 3271 3205 3124 3014 2930 2765 2497 2080 2026 2252 2444 2682 2826 2843 2785 2724 2689 2690 2634 2535 2480 2478 2546 2551 2498 2442 2394 2398 2443 2489 2556 2595 2686 2723 2680 2564 2702 2960 3194 3396 3402 3225 2817 2820 2775 2620 2457 2413 2351 2198 2080 2143 2088 1899 1651 1439 1439 1542 1562
1165 1339 1540 1807 2157 2744 3462 3779 3782 3578 3306 3294 3579 3795 3777 3656 3457 3549 3784 3891 3996 3984 3977 3916 3871 3832 3758 3689 3625 3558 3456 3342 3177 2904 2534 2189 2213 2500 2685 2769 2786 2737 2682 2676 2459 2355 2271 2366 2490 2555 2538 2467 2464 2540 2592 2730 2892 3004 3055 2951 2965 2860 2705 2671 2792 2878 2936 2897 2886 2863 2728 2582 2508 2466 2349 2232 2120 1999 1783 1582 1586 1629 1666 1520 1448
1146 1301 1589 2358 2238 2464 3024 3593 3770 3466 3412 3499 3598 3571 3683 3669 3555 3462 3470 3520 3758 4117 4231 4177 4092 4017 3991 3975 3936 3856 3778 3679 3500 3326 3125 2803 2457 2183 2497 2610 2638 2585 2510 2425 2286 2199 2244 2284 2352 2437 2476 2533 2742 2843 2835 2544 2446 2562 2534 2857 2944 2728 2727 2697 2731 2887 2894 2908 2923 2848 2734 2688 2629 2548 2455 2333 2099 1893 1810 1757 1716 1679 1607 1504 1284
1004 1168 1374 1558 1745 2094 2483 3056 3605 3686 3376 3407 3507 3678 3908 3734 3475 3317 3452 3546 3563 3755 4050 4186 4174 4143 4189 4186 4088 4011 3953 3918 3801 3580 3366 3087 2759 2414 2080 2265 2328 2370 2447 2477 2438 2409 2371 2322 2320 2369 2580 2865 2627 2614 2462 2193 2029 2170 2324 2629 2365 2438 2673 2738 2826 2836 2903 2951 2942 2804 2696 2689 2680 2585 2382 2058 1934 1857 1779 1776 1745 1652 1575 1505 1353
1020 1053 1152 1370 1568 1699 1907 2422 2892 2964 3308 2910 3039 3592 3782 3312 2868 3191 3501 3476 3397 3570 3832 4136 4152 3934 3656 3787 4065 4100 4105 4076 3960 3832 3578 3237 2920 2577 2279 2068 2104 2245 2355 2496 2497 2563 2561 2554 2601 2736 2894 2887 2689 2447 2304 2277 2109 2102 2090 2013 2283 2598 2722 2780 2792 2767 2809 2840 2791 2653 2669 2695 2674 2566 2346 1964 1736 1669 1651 1665 1660 1623 1654 1438 1139
952 933 936 1167 1322 1424 1613 1893 2358 2535 2542 2766 2698 2596 2788 2802 2892 3005 3187 3330 3478 3326 3623 3914 3936 3440 2966 2837 3506 3898 4111 4126 3990 3807 3510 3192 2892 2664 2589 2454 2275 2125 2318 2464 2616 2720 2815 2867 2995 3121 3091 2934 2835 2704 2659 2530 2465 2556 2454 2335 2558 2809 2818 2800 2768 2800 2876 2792 2674 2628 2666 2626 2519 2339 2014 1829 1730 1581 1451 1460 1503 1481 1369 1236 1139
905 853 901 1045 1157 1238 1378 1630 1763 2038 2075 2057 2562 2550 2508 2374 2456 2631 3005 3320 3417 3248 2968 2976 2839 2601 2446 2634 3272 3708 3929 4029 3945 3733 3407 3170 2973 3007 2936 2862 2759 2610 2577 2677 2746 2924 3207 3396 3387 3296 3126 3020 3176 3112 2898 2673 2579 2554 2382 2462 2719 2790 2810 2834 2853 2820 2709 2588 2440 2384 2440 2472 2238 1782 1585 1707 1709 1592 1520 1453 1373 1276 1240 1229 1120
908 972 976 1019 1066 1126 1300 1514 1716 2000 2110 1970 2078 2390 2699 2616 2472 2632 2708 2880 3123 3122 2947 2792 2612 2341 2353 2611 3145 3412 3531 3789 3782 3546 3395 3245 3166 3150 3092 3075 3031 3013 3108 3164 3277 3395 3415 3384 3312 3206 3077 3091 3229 3165 3015 2841 2701 2654 2535 2573 2702 2758 2749 2323 2307 2158 1837 1902 2084 2241 2337 1996 1432 1442 1598 1643 1506 1338 1328 1330 1397 1310 1260 1141 839
571 695 790 887 936 1001 1139 1321 1537 1864 2221 2341 2279 2208 2327 2533 2584 2540 2529 2653 2908 2950 2812 2748 2600 2328 2186 2427 2889 3343 3567 3674 3724 3556 3365 3255 3142 3058 3189 3310 3386 3291 3319 3413 3378 3516 3608 3561 3490 3340 3132 2799 2398 2201 2342 2444 2640 2718 2739 2722 2698 2617 2546 2426 2192 2099 2108 1909 1943 1846 1572 1324 1422 1548 1571 1502 1476 1363 1166 972 899 1029 826 614 542
500 669 775 858 919 1002 998 1029 1266 1562 1867 2172 2388 2420 2408 2390 2382 2449 2499 2511 2480 2599 2735 2670 2615 2466 2254 2267 2747 3184 3591 3702 3626 3408 3242 3238 3244 3438 3583 3694 3743 3672 3479 3324 3367 3482 3652 3653 3540 3389 3177 3032 2860 2638 2440 2592 2551 2644 2638 2593 2589 2651 2634 2466 2263 2105 2128 1977 1482 1390 1238 1458 1470 1430 1380 1241 1079 1157 1129 910 716 554 461 449 449
458 607 775 906 1007 1015 1086 1093 1186 1400 1565 1822 2153 2436 2560 2516 2509 2466 2375 2470 2618 2696 2631 2540 2401 2220 2165 2458 2918 3230 3349 3636 3625 3216 2985 3013 3224 3406 3481 3465 3478 3511 3499 3246 3212 3367 3462 3464 3380 3255 3148 3124 3082 3083 3011 2800 2581 2566 2513 2477 2482 2562 2466 2321 2163 2014 1881 1748 1558 1344 1385 1476 1455 1244 1081 1141 1049 939 761 545 492 403 380 335 0
374 499 633 811 931 980 989 1053 1156 1346 1451 1590 1842 2096 2324 2554 2530 2551 2589 2585 2557 2610 2708 2576 2330 2119 2272 2553 2882 3198 3365 3420 3459 3106 2787 2845 3072 3191 3232 3263 3259 3319 3395 3462 3446 3299 3215 3247 3291 3343 3314 3299 3311 3265 3083 2722 2521 2439 2446 2475 2507 2289 2014 1819 1715 1601 1527 1519 1354 1386 1460 1464 1259 1013 956 1008 916 753 549 512 422 116 18 0 0
314 439 543 647 835 925 934 906 921 1060 1299 1474 1653 1832 2068 2275 2404 2462 2539 2632 2554 2514 2442 2467 2328 2129 2276 2575 2794 3106 3319 3405 3312 2968 2863 2931 2987 2962 2884 2785 2946 3152 3334 3460 3414 3422 3456 3278 3255 3280 3114 3106 3128 3017 2773 2638 2501 2461 2457 2458 2366 2033 1762 1439 1251 1232 1184 1189 1188 1183 1215 894 834 544 331 372 477 447 397 301 40 0 0 0 0
272 264 348 581 817 889 1007 987 994 1048 1158 1425 1591 1726 1796 1914 2164 2093 1900 2178 2231 2182 2106 2124 2066 1908 2144 2429 2614 2876 3200 3068 2768 3261 3145 3068 2942 2903 2842 2714 2827 3124 3204 3186 3198 3315 3476 3343 3249 3055 2862 2678 2567 2508 2441 2340 2415 2403 2351 2310 2211 1992 1756 1499 1216 1101 1102 1047 1001 998 969 671 678 377 396 0 0 0 0 0 0 0 0 0 0
7 3 240 396 641 728 900 978 996 1082 1160 1228 1294 1330 1358 1484 1688 1753 1617 1838 2016 2037 1880 1962 1935 2004 2237 2460 2700 2980 3091 2602 2783 3113 2989 2771 2596 2552 2642 2621 2659 2825 2875 2913 3065 3057 2784 2788 2781 2420 2126 2068 1973 2017 2060 2141 2303 2294 2222 2160 2111 2128 1962 1477 1097 1009 932 914 990 1032 895 564 417 290 328 9 8 0 0 0 0 0 0 0 0
38 36 3 199 310 636 695 773 858 937 993 1045 1061 1093 1223 1401 1470 1452 1504 1704 1912 1989 1921 1862 1784 1780 2034 2450 2730 3060 3125 3174 2669 1708 2570 2563 2279 2357 2431 2513 2601 2674 2772 2838 2779 2600 2525 2350 1940 1793 1723 1660 1748 1798 1820 1993 2050 2024 2088 2050 2003 1840 1673 1304 910 853 798 770 792 848 727 546 512 432 369 112 94 0 5 0 0 0 0 0 0
4 1 2 76 179 206 240 146 578 725 876 895 784 674 1133 1259 1086 1200 1338 1562 1782 1985 2008 1678 1331 1032 1187 1942 2479 2738 2617 2562 2398 1840 1895 2313 2241 1939 1604 1404 1961 2315 2533 2487 2310 2170 1923 1532 1488 1559 1547 1594 1610 1608 1764 1921 1941 1810 1632 1432 1290 1264 1188 1038 845 785 808 777 747 629 562 303 220 245 38 1 2 1 0 0 0 0 0 0 0
16 8 2 3 78 187 123 76 91 268 438 256 534 644 484 687 1092 1415 1579 1703 1759 1803 1704 1325 892 574 483 898 1652 1897 1784 1771 1659 1433 1167 1081 923 774 719 1059 1438 1666 2073 1617 1232 1300 1378 1376 1329 1362 1386 1385 1350 1380 1560 1624 1702 1504 1307 1216 1188 1230 968 714 789 709 498 204 324 406 252 1 1 2 2 1 1 0 0 0 0 0 0 0 0
1 0 10 6 1 44 83 119 80 77 258 138 333 482 549 560 630 599 772 748 841 883 919 846 644 562 624 724 869 946 820 731 685 646 696 659 570 590 698 788 926 1033 1075 1019 1073 1021 1113 1163 1233 1265 1272 1234 1318 1423 1392 1323 1247 1179 1062 988 822 736 812 746 570 428 294 1 155 2 2 2 2 1 1 1 1 1 1 0 0 0 0 0 0
Wind_Speed
6 7 11 10 10 9 8 8 nan nan nan nan nan 6 nan nan nan nan 9 8 8 7 6 6 6 5 5 5 6 6 6 5 6 9 9 9 9 8 7 7 7 7 7 8 8 7 8 8 7 7 7 6 6 6 4 6 7 7 8 7 6 5 4 4 5 10 11 7 8 9 8 6 7 7 9 10 9 9 7 8 9 9 10 11 12
4 6 9 10 9 9 9 10 9 nan nan nan nan nan 7 nan nan nan nan 6 8 7 7 6 7 7 6 6 7 6 6 5 3 7 9 9 9 8 7 6 7 7 6 7 7 7 6 6 7 6 4 5 4 4 4 6 7 8 8 7 7 5 4 4 4 5 10 9 9 9 8 4 5 6 9 8 6 4 6 6 6 7 9 9 10
4 7 8 9 9 11 13 12 11 9 nan nan nan nan nan 7 8 nan nan nan 7 6 6 6 7 8 8 8 8 6 6 5 1 4 7 8 8 8 7 6 6 7 7 8 7 6 5 5 6 5 2 3 3 4 3 5 7 7 7 7 7 7 5 3 4 4 7 9 7 7 6 6 4 8 8 4 3 4 5 6 5 4 5 7 8
5 7 7 7 9 13 14 14 12 10 7 nan nan nan nan nan 9 7 7 7 7 7 6 6 6 7 8 8 8 6 5 5 3 1 4 6 7 8 7 6 6 6 7 7 6 5 6 4 5 4 2 2 3 3 3 4 5 7 7 8 7 7 7 5 4 3 5 7 8 4 6 6 7 7 6 3 2 4 3 4 3 4 5 4 5
3 4 6 7 10 12 12 14 13 10 9 9 nan nan nan nan nan 7 7 6 6 7 7 6 6 7 7 7 7 6 5 5 4 1 3 5 6 7 7 6 5 6 6 6 6 6 6 5 4 2 1 2 1 1 1 2 4 6 7 7 6 7 7 6 5 5 5 5 8 7 7 7 7 8 5 5 5 3 3 2 2 2 3 3 6
3 4 6 8 11 10 11 12 11 10 11 11 10 nan nan nan nan 8 7 5 6 6 6 6 6 6 6 6 6 6 5 5 5 3 1 3 5 6 6 6 5 5 5 5 5 5 6 6 5 4 3 2 2 2 2 1 3 5 6 7 7 8 7 6 6 6 5 5 6 11 10 9 11 9 7 5 6 6 5 3 2 2 5 3 6
4 5 7 8 10 10 10 10 11 12 13 14 15 14 nan nan nan nan 8 6 5 5 5 5 6 6 6 5 5 5 5 5 5 4 3 3 4 4 6 6 5 4 4 4 4 5 6 5 5 5 5 4 3 4 4 3 2 2 3 6 8 8 7 6 6 6 6 6 8 7 9 9 7 11 11 9 6 4 3 3 2 5 7 8 5
6 6 7 7 8 9 10 12 12 14 17 18 18 16 15 nan nan nan nan 8 6 5 4 5 6 6 5 4 4 4 4 5 5 5 5 4 4 3 3 4 4 4 3 3 3 5 6 6 6 6 6 5 4 4 7 6 5 2 2 4 7 8 9 8 8 7 7 7 7 8 9 10 11 11 14 14 11 9 5 5 2 3 5 8 9
9 7 7 6 7 10 14 16 17 17 18 19 18 17 16 16 15 14 12 10 9 7 6 6 6 6 5 5 4 3 3 3 5 6 6 5 6 4 2 2 3 3 3 2 2 3 5 6 7 6 6 6 6 5 6 7 8 6 3 5 6 8 10 11 9 8 8 7 7 9 10 11 11 14 16 15 11 7 7 8 5 4 5 7 8
14 12 9 10 14 16 17 20 20 18 18 16 16 16 17 18 17 15 13 11 11 10 9 7 6 6 6 5 4 3 2 3 4 7 6 7 7 6 5 3 2 2 1 1 1 2 4 6 7 10 10 9 7 6 5 5 6 7 7 7 6 8 9 11 11 9 8 7 6 8 10 10 11 13 14 15 14 13 12 11 10 7 8 7 10
17 17 23 29 31 34 34 28 22 19 17 17 17 16 16 18 18 17 15 14 12 12 10 8 7 7 7 7 5 4 3 4 6 7 7 8 7 7 6 5 4 3 2 1 1 2 3 4 6 7 8 8 7 8 6 6 4 4 4 6 8 9 9 10 11 12 11 8 8 10 10 10 11 14 14 15 16 14 13 13 12 12 12 13 13
21 21 18 16 18 20 18 18 24 21 18 17 16 17 18 18 18 18 17 15 15 14 11 9 9 9 9 8 6 5 4 4 7 8 8 8 8 7 8 8 7 6 4 3 3 3 3 4 5 7 8 8 8 7 7 6 5 4 3 2 4 7 9 11 11 13 14 11 10 10 13 10 12 15 14 16 15 16 15 15 14 13 12 14 16
22 21 16 11 7 9 13 16 14 12 15 16 17 18 17 16 15 16 16 17 18 15 13 12 11 10 9 8 7 7 7 6 8 9 9 8 8 7 9 9 9 8 7 6 5 5 5 5 6 8 8 8 8 8 8 6 5 4 3 2 3 4 6 6 9 11 16 15 13 13 13 14 14 13 14 14 17 15 15 15 15 15 14 15 16
24 21 17 11 8 10 9 8 15 17 16 16 17 17 15 13 13 16 18 20 18 16 15 12 12 11 10 9 9 9 8 8 10 11 10 10 9 8 8 9 9 10 9 9 8 7 7 8 8 8 8 8 9 9 9 8 7 8 10 10 10 8 7 8 7 8 15 17 18 16 16 19 13 14 12 15 15 11 13 12 15 15 15 17 19
32 24 19 16 17 21 21 17 12 15 17 16 16 15 14 13 13 15 17 17 17 16 15 14 14 13 12 11 12 10 10 9 12 12 12 12 10 10 8 10 11 11 12 12 10 10 10 10 9 9 9 9 10 10 10 9 9 8 10 11 12 11 12 12 13 13 16 18 18 18 17 17 13 12 12 16 14 13 14 14 14 15 18 21 21
27 27 25 23 21 22 21 18 14 13 13 14 13 12 13 14 13 15 17 17 17 18 17 16 15 14 14 13 13 10 11 10 13 13 14 14 14 14 11 10 11 12 12 14 14 14 13 13 11 10 10 10 8 9 10 11 11 10 10 11 13 15 15 14 12 13 15 17 18 19 19 16 12 12 14 17 16 16 16 16 18 21 22 21 18
22 23 23 23 21 21 18 14 13 13 13 11 10 10 13 14 16 18 16 16 16 15 15 15 16 15 14 14 12 12 12 12 14 15 15 16 19 16 13 12 12 12 12 15 16 16 16 15 14 12 12 11 9 10 9 11 13 12 12 12 13 16 16 18 16 14 14 15 16 17 15 12 11 10 11 13 16 19 21 21 20 23 23 20 20
25 24 24 24 24 24 20 15 13 13 12 10 10 11 14 16 16 17 15 15 15 15 16 16 16 16 14 13 13 13 13 15 15 15 16 20 23 19 17 14 12 13 13 15 18 19 18 14 15 14 13 13 10 12 11 14 13 13 14 14 15 16 16 20 24 23 18 15 14 14 13 12 11 10 12 14 17 21 24 22 23 28 24 25 22
30 26 26 27 28 25 21 15 13 13 11 10 12 12 13 15 18 19 17 17 16 17 18 17 16 16 14 12 11 12 14 16 17 16 17 22 24 22 21 18 14 13 15 16 18 20 19 17 13 14 14 13 13 14 12 14 12 12 12 14 14 16 16 23 23 25 26 23 20 20 18 15 15 17 16 15 20 23 24 23 26 28 25 24 25
33 28 28 30 30 27 22 15 13 12 11 13 14 13 16 18 18 18 18 18 18 18 17 16 14 15 15 14 14 12 13 16 20 16 19 21 23 24 24 21 16 13 15 17 18 20 19 20 18 13 12 12 14 15 13 14 11 12 15 15 16 15 21 25 23 24 24 24 23 22 19 20 21 21 22 23 24 25 25 25 27 29 28 27 29
38 32 30 31 33 31 24 15 12 12 14 16 16 16 17 17 17 18 18 19 19 17 15 16 15 14 15 15 14 13 13 13 19 19 18 20 21 22 23 20 17 16 17 17 18 19 20 20 22 19 15 14 15 15 15 13 10 13 16 16 16 21 29 25 23 24 25 25 25 23 21 21 22 24 26 25 25 26 26 27 28 30 31 31 32
38 36 33 30 31 32 25 18 16 17 17 19 19 17 17 16 18 18 20 20 17 15 16 16 15 14 15 14 13 13 13 10 17 19 19 19 20 20 20 18 18 19 18 17 18 19 20 22 23 22 20 19 18 17 16 15 11 15 15 14 16 28 28 27 27 27 26 26 26 25 24 24 26 27 28 26 26 27 28 29 30 31 31 33 35
37 36 33 29 26 25 23 18 19 22 21 20 19 17 18 18 18 19 20 19 17 16 15 15 15 14 14 14 14 13 14 15 13 20 19 19 19 19 16 15 16 18 18 16 17 18 21 23 24 21 21 21 21 21 20 17 18 16 12 16 22 26 28 29 28 28 27 26 27 25 27 28 29 29 30 30 30 31 33 34 35 36 37 36 37
37 36 33 27 23 21 20 19 19 22 21 22 21 20 20 20 20 21 20 19 19 16 15 15 15 14 13 13 14 14 16 17 17 18 20 18 18 20 16 12 15 18 18 17 18 19 21 23 25 21 21 22 23 23 22 22 21 16 17 19 24 25 26 27 27 27 27 26 25 25 26 28 29 28 29 31 32 34 37 38 39 39 40 41 40
37 34 31 29 27 25 24 23 22 22 23 24 23 23 22 22 23 22 22 21 20 17 15 15 13 12 13 12 13 14 17 18 20 18 18 19 17 18 17 14 11 16 18 18 20 21 20 20 22 23 24 25 25 25 25 22 18 19 20 21 23 25 25 25 26 27 26 24 23 23 24 26 27 27 31 34 36 38 38 38 39 39 40 41 40
39 37 36 34 33 32 29 26 25 24 24 25 23 24 24 25 24 25 25 23 21 18 17 16 14 13 12 12 11 13 17 19 18 20 19 20 18 16 16 16 13 14 15 17 16 16 19 22 23 24 26 29 33 33 30 26 21 19 21 25 25 23 24 25 25 25 22 22 21 20 22 25 29 32 34 37 38 38 38 38 38 37 38 41 41
41 41 41 41 39 36 32 30 28 27 26 26 25 26 27 28 27 27 27 24 21 19 18 17 16 14 11 10 12 15 18 19 18 19 23 24 23 21 18 17 15 16 19 20 21 25 26 27 29 29 32 32 32 33 31 32 33 31 29 26 24 23 24 25 24 22 20 19 19 20 24 30 33 33 33 34 35 35 36 37 37 38 40 41 43
43 44 44 44 42 39 34 26 25 29 28 27 27 27 28 28 29 28 26 23 22 21 20 19 16 14 12 13 15 18 18 19 17 17 21 25 24 25 24 23 25 24 22 22 25 29 34 37 39 38 38 39 37 38 35 34 32 32 29 26 24 23 22 20 21 18 16 16 17 21 25 26 26 28 29 30 33 36 37 40 41 42 42 44 44
45 45 46 46 44 40 35 32 31 31 31 29 27 26 26 28 30 30 28 27 24 21 19 17 16 16 16 16 17 18 18 16 14 17 21 24 26 27 27 25 26 27 23 24 30 36 39 36 34 35 36 35 36 35 36 35 33 31 29 27 25 25 24 23 18 14 13 15 15 18 21 24 25 27 29 31 34 37 37 40 40 43 42 41 44
49 47 47 47 47 43 39 35 34 33 32 32 31 43 58 58 50 38 30 24 20 17 18 17 18 21 19 19 20 18 15 14 16 22 22 26 27 28 25 27 27 27 26 29 33 32 31 29 29 32 34 35 35 36 35 35 34 32 29 27 26 25 23 18 14 12 14 15 18 23 23 25 28 29 31 34 36 37 37 40 40 42 43 43 44
50 50 49 49 48 46 42 39 39 37 37 42 50 53 46 40 39 42 41 38 28 19 18 17 20 21 22 22 21 15 13 16 23 25 25 28 29 28 28 29 30 26 32 41 34 28 26 25 26 30 31 33 34 35 36 36 34 33 30 29 27 23 19 16 15 17 17 18 23 25 26 28 30 31 34 36 38 37 38 38 41 42 42 42 42
51 51 51 49 49 49 44 42 43 51 55 54 50 44 36 30 27 31 38 38 41 35 27 22 20 20 19 19 23 24 19 17 22 27 27 29 29 29 30 32 31 33 34 36 30 24 22 23 26 29 32 32 33 35 36 35 33 32 32 30 26 23 20 18 19 20 19 22 27 28 28 29 31 33 36 38 39 39 39 39 40 41 41 40 39
49 49 50 49 50 54 55 52 51 51 51 50 47 42 37 32 30 35 47 48 45 41 38 36 31 27 21 18 20 22 23 24 24 28 28 29 31 31 34 38 38 37 42 34 24 21 21 23 26 30 33 32 34 35 35 33 33 31 31 29 26 23 21 20 24 22 22 25 29 29 30 32 33 35 37 40 41 40 39 38 37 40 41 41 39
45 46 47 48 49 53 56 61 60 57 54 49 47 44 38 33 31 38 45 45 44 41 39 34 32 29 26 24 24 24 23 23 28 31 32 32 34 41 47 43 40 38 35 27 24 20 22 24 26 30 33 33 33 34 34 34 33 31 29 27 26 26 24 27 27 25 26 28 30 32 33 34 35 37 39 41 42 42 39 36 38 42 42 43 42
44 44 45 47 50 52 57 58 60 62 65 63 59 53 46 40 39 41 41 41 40 37 32 31 30 29 28 30 32 33 30 28 28 33 34 39 46 48 50 47 40 32 27 25 24 21 21 25 26 29 33 34 34 36 40 45 44 39 30 26 27 28 29 29 28 29 30 33 34 34 34 36 37 38 42 44 44 42 40 39 41 44 44 42 42
48 47 47 48 50 51 53 56 57 57 58 56 56 57 57 55 51 46 42 42 43 41 38 35 37 42 47 49 47 46 43 38 33 34 41 45 45 51 43 34 31 27 27 25 22 21 23 25 27 30 36 44 51 52 50 43 37 32 27 28 26 25 26 30 33 34 34 34 34 36 38 39 40 41 44 45 44 42 42 43 45 45 45 45 43
51 50 49 49 49 49 53 55 56 53 51 49 50 50 49 48 47 43 40 40 41 42 42 46 46 42 46 48 49 55 54 52 47 44 41 40 43 40 34 33 28 27 27 26 25 23 24 25 30 36 45 49 39 34 35 35 35 34 29 29 27 25 26 33 38 37 37 37 40 42 42 41 41 42 44 44 42 43 46 48 48 49 48 47 46
54 53 52 50 48 49 52 51 51 50 49 46 43 43 44 47 48 46 41 36 38 42 45 50 47 44 44 47 46 48 56 58 61 57 49 43 36 31 30 29 27 26 28 27 26 25 25 28 35 42 45 41 32 31 35 34 37 35 31 31 31 31 37 40 42 43 43 43 43 43 42 40 41 44 45 44 44 47 49 50 51 51 49 47 46
58 54 54 55 50 49 50 50 47 46 45 41 39 40 41 44 46 44 40 38 40 44 52 54 49 47 48 51 52 55 60 54 48 44 42 36 32 29 29 28 27 28 35 32 29 28 30 33 38 40 40 37 36 39 36 36 37 36 36 37 39 40 41 42 46 47 48 43 40 41 42 42 45 47 47 47 49 51 52 51 52 51 49 47 44
61 57 55 57 54 51 50 48 46 44 43 41 39 39 39 39 38 36 36 39 42 46 50 51 49 48 50 53 55 54 52 49 50 49 41 35 31 31 30 29 33 40 36 29 29 32 36 38 39 39 37 40 43 41 39 37 36 37 39 40 42 43 44 47 48 48 46 45 46 46 47 47 49 50 50 51 53 54 54 54 53 52 50 48 46
60 59 59 58 55 53 52 49 46 42 41 40 41 40 35 34 35 35 36 39 42 43 47 49 47 47 48 48 47 50 54 54 50 44 42 42 43 42 41 42 42 38 31 35 40 42 42 41 41 41 42 45 44 42 39 39 39 40 41 43 44 45 46 49 50 50 50 50 50 51 51 53 54 56 56 55 55 56 56 56 55 53 52 50 49
59 60 60 60 60 57 56 54 50 43 40 41 41 39 36 35 37 37 37 38 39 40 43 46 47 47 48 51 55 59 57 48 46 49 50 50 50 49 47 47 47 45 43 41 41 42 41 41 41 41 43 45 45 45 45 44 44 45 45 46 47 49 49 50 51 52 52 52 53 56 57 58 58 58 60 60 59 58 58 57 56 56 55 54 52
61 61 61 62 63 60 58 56 54 52 50 46 43 42 41 40 38 37 38 39 39 39 42 46 50 54 57 60 61 64 63 60 56 54 54 53 50 48 48 49 50 50 49 48 46 43 41 40 40 42 44 46 45 46 46 46 46 47 48 50 51 52 53 53 54 55 57 59 60 62 62 62 62 62 62 61 60 59 58 58 58 58 57 56 nan
63 62 62 64 63 61 60 60 61 59 57 56 55 52 47 41 39 40 42 43 41 42 45 51 55 57 58 62 68 71 70 65 60 57 57 55 52 49 47 48 49 50 51 50 49 47 44 42 42 44 47 47 45 45 47 47 46 48 50 52 55 56 56 56 57 57 58 61 63 63 63 62 61 61 61 60 60 61 60 60 59 58 nan nan nan
67 65 64 64 65 64 63 63 63 62 61 59 57 54 53 53 50 50 51 52 51 50 51 54 56 58 60 65 69 73 72 67 63 60 58 55 53 50 49 48 46 45 45 45 46 47 46 45 44 46 48 47 47 48 48 48 48 50 52 55 58 59 58 58 57 55 57 61 62 62 61 60 60 60 61 61 61 61 61 60 nan nan nan nan nan
70 67 64 63 65 67 66 65 65 64 64 63 61 57 55 55 52 51 51 54 54 53 56 59 61 63 65 69 73 76 75 71 66 62 59 56 52 49 48 47 46 46 45 44 45 47 47 46 46 47 48 48 48 49 49 50 50 52 53 54 53 55 55 57 57 59 59 61 63 63 63 62 61 61 63 nan nan nan nan nan nan nan nan nan nan
nan nan 66 63 64 67 66 65 65 65 65 65 65 62 58 57 56 56 56 59 59 60 63 65 67 68 70 73 76 77 75 75 71 64 60 58 57 55 53 52 51 49 48 48 47 47 48 48 48 49 49 49 50 52 51 51 52 52 53 53 51 52 55 58 60 61 62 62 63 65 65 64 63 63 64 nan nan nan nan nan nan nan nan nan nan
nan nan nan 63 63 66 66 64 66 68 65 65 66 64 59 56 55 56 56 58 60 62 65 67 69 70 72 75 78 76 74 76 75 69 62 62 62 62 60 58 54 51 51 51 50 50 49 47 48 50 51 52 52 53 53 53 54 57 57 54 53 53 56 59 60 62 62 64 65 65 65 66 66 66 66 67 nan nan nan nan nan nan nan nan nan
nan nan nan nan 63 62 61 61 63 64 62 61 62 63 59 55 54 53 54 54 54 53 56 60 63 65 67 71 76 76 74 76 76 71 66 63 62 59 57 56 54 52 52 51 50 50 51 52 52 52 54 54 55 56 56 54 53 54 57 54 58 64 66 65 61 59 62 65 65 65 65 65 66 67 nan nan nan nan nan nan nan nan nan nan nan
nan nan nan nan nan 63 62 nan nan 61 60 58 56 56 57 59 56 56 56 56 54 52 50 51 52 53 56 62 69 72 73 74 72 67 62 59 56 52 51 51 52 51 51 52 52 53 54 54 55 55 57 58 59 58 58 59 60 60 60 61 65 66 65 66 65 64 61 59 61 61 63 nan nan nan nan nan nan nan nan nan nan nan nan nan nan
nan nan nan nan nan nan nan 65 nan nan 61 60 56 52 55 59 59 58 58 58 57 54 52 49 46 47 51 57 64 69 70 70 68 64 59 57 55 53 51 51 51 52 54 55 55 56 57 58 59 61 61 61 61 61 61 62 62 63 65 68 67 67 67 65 63 65 68 nan 59 nan nan nan nan nan nan nan nan nan nan nan nan nan nan nan nan
Wind_Direction
262 243 239 230 224 223 224 224 nan nan nan nan nan 192 nan nan nan nan 242 250 259 263 268 278 286 302 324 358 14 13 16 44 110 136 140 135 128 120 115 104 94 93 86 76 73 59 57 63 66 66 74 83 100 127 158 170 174 168 165 169 164 173 191 173 145 124 136 124 116 116 129 126 119 79 81 79 71 62 56 50 53 53 52 49 48
258 248 242 241 240 226 222 224 224 nan nan nan nan nan 192 nan nan nan nan 249 263 277 283 280 285 304 321 347 3 6 1 15 99 143 139 136 128 128 115 100 95 93 92 83 71 68 56 58 73 71 64 63 93 117 156 192 193 181 170 169 159 160 171 211 139 150 131 154 147 143 133 116 106 92 78 89 81 71 92 89 67 40 47 46 39
225 222 225 232 240 234 228 224 222 224 nan nan nan nan nan 196 212 nan nan nan 241 260 277 289 293 303 319 333 346 355 347 347 15 141 136 129 121 120 114 102 88 80 74 72 67 69 66 59 67 71 56 58 76 96 147 177 196 193 172 178 164 160 183 190 215 163 137 138 155 154 145 151 116 109 111 96 80 90 101 92 88 86 55 38 33
217 214 212 220 234 234 230 225 223 221 217 nan nan nan nan nan 207 209 216 224 239 241 256 278 283 296 312 321 332 342 335 323 311 162 128 126 124 115 113 101 86 73 65 62 57 48 50 56 67 61 59 41 52 80 124 166 189 197 191 181 180 167 181 198 199 190 179 152 169 168 157 159 147 129 127 142 99 111 86 99 112 101 96 81 34
240 230 219 216 225 232 235 231 225 218 212 212 nan nan nan nan nan 208 217 220 233 240 240 252 267 279 292 307 319 331 326 312 304 280 160 144 127 121 115 108 89 71 59 56 50 40 35 32 39 29 353 28 34 36 83 151 169 192 193 192 193 184 188 201 197 210 195 163 163 179 180 183 167 155 159 170 174 178 176 158 125 72 81 68 23
254 251 235 225 220 227 231 233 230 222 215 211 211 nan nan nan nan 201 212 221 235 246 253 248 260 277 286 302 316 327 317 301 298 289 231 167 150 135 125 113 100 83 66 52 43 37 35 28 13 344 324 337 351 322 303 43 173 178 186 192 200 206 203 201 214 216 211 180 181 177 198 184 182 171 179 196 186 185 183 189 218 306 303 359 30
244 249 247 238 226 220 223 225 223 220 217 213 212 212 nan nan nan nan 203 208 225 242 256 263 256 270 286 300 317 323 318 298 286 273 245 214 187 157 135 120 109 101 82 49 27 21 27 22 4 339 335 330 310 299 301 296 288 169 182 193 205 219 218 220 232 234 230 208 201 197 187 197 198 174 191 216 218 238 230 211 275 300 303 331 10
241 249 249 247 237 225 218 217 214 213 214 214 212 210 208 nan nan nan nan 200 207 225 250 265 261 262 280 294 310 309 313 300 288 276 256 243 229 199 155 126 105 98 86 58 18 4 6 6 0 344 338 328 311 283 282 293 284 275 207 213 209 213 211 218 230 241 238 232 218 196 209 204 202 203 207 214 212 207 229 278 268 291 305 315 324
231 236 243 249 240 229 218 213 210 210 213 214 213 210 208 207 208 207 204 198 202 208 223 246 261 267 271 284 297 299 309 306 280 272 263 254 243 235 207 143 114 97 81 61 24 359 347 347 347 344 337 352 352 325 294 288 281 287 263 251 230 226 219 222 227 231 231 233 208 221 214 203 203 204 200 210 215 210 228 245 259 287 309 292 289
222 220 221 217 215 215 214 211 210 213 214 214 215 214 211 209 210 209 206 202 203 210 215 228 250 269 275 280 285 286 290 266 301 334 303 265 257 245 235 207 172 145 96 54 11 347 354 338 335 359 1 6 4 357 336 314 306 291 285 278 265 247 233 230 230 235 240 235 228 227 217 210 209 219 216 219 226 225 219 239 254 251 254 261 277
229 229 226 227 224 213 198 196 202 206 209 211 215 218 217 215 211 209 208 207 207 211 215 221 233 250 266 272 282 277 274 265 337 321 326 324 279 257 247 231 220 210 218 277 325 334 327 326 317 338 345 347 342 353 347 335 317 319 322 312 296 283 258 244 237 242 246 247 242 243 242 222 218 234 228 221 231 235 238 247 254 256 254 258 258
235 240 249 267 279 276 259 222 193 195 204 205 211 216 219 219 215 213 212 210 211 214 215 217 224 235 245 259 270 271 264 300 322 321 327 330 312 276 253 242 234 231 243 267 275 282 299 298 298 296 301 313 316 313 328 347 343 322 312 314 311 313 300 277 257 246 248 248 246 251 251 244 230 239 231 235 234 238 246 248 253 259 262 265 273
224 229 237 252 267 274 289 294 285 236 214 212 211 215 219 219 218 218 216 215 216 215 216 220 221 227 236 250 260 264 255 290 303 316 323 327 329 302 252 248 239 236 247 262 274 287 283 279 278 282 289 331 323 309 301 302 327 338 304 265 231 263 277 291 288 268 260 256 255 250 263 256 252 248 254 248 252 250 247 247 256 265 274 277 279
208 215 223 224 204 187 194 259 287 282 256 234 224 220 219 216 218 221 220 220 218 215 218 222 224 228 232 237 243 247 256 276 300 307 313 321 322 302 256 252 241 235 241 250 258 276 286 282 276 272 282 288 290 296 292 293 285 272 265 259 251 243 264 280 277 259 255 260 262 262 259 266 266 265 267 267 266 264 268 269 272 273 277 285 284
192 203 209 206 197 186 182 187 218 257 265 253 239 228 220 213 217 222 224 225 223 220 220 222 225 228 228 229 231 235 242 282 291 302 305 309 311 293 261 249 240 232 231 237 248 261 270 276 274 274 277 281 284 294 291 288 281 275 265 261 258 252 255 261 269 270 267 263 265 268 266 267 268 272 271 277 287 290 291 293 293 287 282 279 276
192 197 200 202 196 190 187 182 190 216 243 254 247 233 224 219 217 222 223 222 221 219 217 219 225 229 230 231 229 227 231 271 284 294 302 300 300 269 258 253 247 238 233 233 240 250 260 268 268 268 268 275 293 316 308 287 280 280 278 265 256 250 248 255 267 271 271 272 271 272 275 279 282 273 272 281 288 290 290 288 281 281 280 278 284
216 209 202 202 196 194 197 194 191 202 216 228 237 231 224 219 216 219 220 220 221 221 217 218 221 228 234 235 234 228 227 251 275 285 289 295 278 262 258 249 245 241 234 235 238 246 255 263 267 265 264 266 282 299 306 297 275 281 280 274 265 256 247 246 256 266 272 276 282 285 290 287 275 272 278 289 290 286 284 285 290 287 285 282 281
221 217 210 208 203 200 200 197 195 206 212 206 208 215 219 217 217 220 219 220 218 216 215 212 213 219 229 235 237 232 227 241 266 272 280 283 279 269 259 252 243 239 232 233 237 241 250 273 274 268 266 263 280 293 299 285 274 275 272 270 268 260 250 249 250 255 268 279 281 277 270 270 280 284 291 303 308 295 291 294 286 283 290 290 291
223 219 213 214 209 204 203 197 193 204 210 204 206 208 213 218 219 219 216 218 217 219 218 214 210 212 218 226 238 242 232 239 259 266 272 275 273 261 260 253 245 237 235 231 236 241 244 251 271 276 269 266 278 286 296 286 275 274 273 269 269 265 260 258 257 256 258 261 264 267 263 269 276 283 286 302 304 300 293 291 285 287 292 294 297
222 218 218 220 213 204 198 193 193 203 212 213 210 205 210 216 222 223 219 218 220 223 222 219 213 209 212 218 226 236 239 239 251 269 270 272 279 265 257 256 249 242 237 234 232 237 242 244 249 263 274 271 273 280 286 293 274 265 266 269 268 268 264 264 266 267 264 267 266 271 273 271 271 273 273 275 281 285 289 290 289 291 295 298 300
210 214 219 219 214 204 200 203 207 208 214 219 216 212 212 215 222 225 223 220 221 223 226 225 220 214 215 216 219 229 236 242 251 275 275 278 281 276 259 260 256 247 240 235 233 233 237 241 243 249 258 258 260 266 273 280 273 256 262 264 272 267 269 271 274 281 271 269 269 270 269 267 268 267 267 270 276 283 288 290 292 295 299 301 302
200 198 201 207 206 207 212 224 229 221 221 225 223 218 215 216 221 226 225 224 224 225 227 229 228 225 223 223 222 227 235 255 248 268 285 286 286 291 266 262 262 253 246 238 236 234 234 236 238 246 255 255 256 260 266 269 275 252 253 269 269 271 272 272 274 274 274 272 271 270 269 268 265 266 269 275 282 286 290 291 294 296 297 296 298
197 195 196 196 198 203 214 228 231 226 226 231 232 227 222 220 221 225 227 226 225 225 227 231 233 233 233 232 231 233 236 240 261 259 279 293 296 295 300 277 276 260 250 245 244 239 237 235 236 240 248 252 254 256 258 263 255 250 250 250 256 273 271 272 274 276 275 274 274 273 271 270 270 273 276 280 282 282 284 283 284 285 286 286 289
197 198 202 204 201 203 212 222 228 229 230 232 233 233 230 227 226 226 229 229 228 225 224 230 234 236 240 239 239 240 243 244 252 270 270 294 297 303 305 304 283 262 253 244 244 243 239 238 238 242 246 250 254 256 256 258 254 255 252 252 263 274 273 274 276 277 277 276 276 275 274 277 281 282 283 284 285 282 280 281 283 286 287 287 285
196 196 199 201 202 205 211 218 224 227 229 234 235 235 235 236 232 231 231 230 228 226 227 233 236 237 239 243 245 246 250 251 249 260 281 285 296 298 302 306 290 272 256 244 244 244 244 249 247 246 245 250 255 255 251 253 255 252 259 266 270 269 275 277 277 274 275 277 278 279 279 281 284 282 279 279 279 278 282 283 284 284 284 283 283
197 196 195 196 196 200 205 212 220 227 231 233 237 238 241 241 238 237 236 233 230 230 232 236 236 240 242 245 251 256 256 255 255 255 258 267 270 285 296 295 293 277 264 251 257 257 256 254 253 249 247 248 250 249 249 250 255 257 254 258 261 268 272 274 273 275 276 275 278 279 277 273 267 268 273 280 285 288 288 286 285 283 285 288 289
198 197 194 192 193 198 202 208 217 224 231 234 237 238 239 241 242 243 243 240 239 239 241 244 241 243 245 247 251 256 258 258 259 258 257 257 253 253 255 256 264 261 249 241 239 242 243 244 242 244 245 254 257 255 254 252 251 253 256 260 265 270 273 274 277 279 279 278 274 271 267 263 269 275 279 285 288 287 285 287 288 289 291 294 295
200 197 193 191 193 197 203 207 215 224 230 236 239 240 240 242 243 244 244 244 245 245 247 250 251 252 247 244 244 249 255 259 263 267 264 262 257 253 252 252 255 256 254 249 247 244 243 241 239 242 247 249 252 253 254 256 257 258 259 262 267 270 274 278 272 273 276 276 270 264 263 269 276 279 284 289 292 293 294 294 296 299 301 301 297
200 198 196 195 195 200 206 212 220 225 232 237 238 243 244 243 240 235 234 238 245 252 256 260 263 259 253 250 250 247 251 260 269 273 270 270 264 256 250 249 250 250 255 259 249 245 244 245 245 247 250 254 255 256 257 258 259 260 262 264 266 269 270 272 278 281 279 272 273 276 276 277 283 287 291 293 295 298 299 299 302 303 304 303 304
202 202 201 200 200 202 208 213 221 227 232 236 238 231 221 224 223 225 230 242 254 260 262 259 261 256 251 247 250 253 255 259 259 266 268 270 269 269 265 262 261 256 255 262 256 251 250 249 250 252 253 255 257 257 259 261 262 263 263 264 267 270 273 275 274 270 269 274 275 275 281 283 286 291 293 293 294 297 301 303 306 308 308 307 306
206 205 204 204 203 204 209 214 219 226 229 231 232 230 225 221 226 236 233 225 229 246 258 255 256 262 256 245 246 256 249 249 260 270 272 272 274 270 265 264 266 267 262 255 252 255 253 252 250 252 255 255 256 258 260 261 262 264 266 268 269 271 271 266 265 264 270 276 276 279 283 287 290 290 292 295 298 299 300 304 307 309 307 308 306
207 207 207 208 207 208 213 217 222 229 232 236 240 240 238 240 233 238 245 246 237 232 232 243 255 266 269 260 250 243 246 253 260 270 275 275 275 273 267 266 269 270 270 275 263 260 257 254 251 253 256 257 257 257 259 260 261 264 265 267 269 268 267 262 264 271 279 280 280 284 287 289 290 289 290 293 296 298 302 305 309 309 306 305 306
206 207 209 210 212 213 213 220 230 235 238 239 241 243 241 237 239 239 232 232 241 248 253 250 241 229 229 245 264 260 255 255 262 265 270 273 271 270 266 258 257 264 265 263 264 262 254 251 250 252 256 256 256 256 257 259 260 262 265 268 267 264 263 264 269 276 280 282 282 285 287 287 286 287 289 292 295 299 302 306 309 310 307 304 303
208 211 213 213 215 221 224 220 220 223 227 235 243 245 243 241 238 239 241 240 235 231 236 253 263 259 247 246 242 237 238 251 263 266 268 269 269 264 264 259 263 274 283 279 273 262 252 248 249 253 255 256 257 257 257 256 257 258 259 260 259 259 262 264 269 274 274 277 280 280 282 284 286 288 289 291 294 296 299 304 308 309 307 304 302
213 211 204 212 222 223 227 230 229 230 229 224 223 226 228 232 235 237 241 243 244 245 247 247 247 258 261 257 254 250 243 235 250 262 267 265 263 266 262 256 258 257 260 255 258 253 248 249 251 255 256 255 254 253 250 244 241 238 238 242 248 254 259 266 271 273 276 276 278 283 287 287 287 287 289 290 292 295 297 301 307 308 306 303 300
217 217 217 217 224 228 231 233 235 236 237 236 239 240 234 225 224 225 227 233 240 243 241 247 249 239 236 238 247 249 245 241 241 252 261 267 271 270 261 261 262 264 266 265 261 252 245 246 251 253 255 248 242 240 246 253 256 256 247 241 242 248 258 264 266 271 276 281 284 283 282 283 283 285 286 288 294 299 299 301 304 305 305 302 299
217 219 218 220 222 229 236 238 237 237 239 241 243 246 249 251 249 242 231 231 238 240 242 244 243 241 238 236 240 245 247 247 247 251 259 269 277 272 263 267 266 264 262 260 256 252 251 250 252 254 254 257 260 264 268 273 275 275 266 256 253 258 262 263 267 272 277 278 278 280 280 280 282 286 289 293 297 300 300 300 302 303 302 299 294
218 219 220 220 223 229 238 242 243 242 243 245 243 244 247 248 248 250 249 239 236 240 243 242 241 242 239 234 233 240 247 248 247 243 244 247 253 253 256 258 262 262 260 258 257 255 254 252 253 255 260 267 272 269 266 265 267 268 268 264 263 263 265 267 273 276 276 274 275 277 278 279 282 284 288 294 299 298 297 298 300 301 300 296 292
219 218 218 217 222 230 239 242 245 246 248 249 248 251 257 255 250 251 252 246 238 239 240 241 241 240 240 238 237 244 251 248 248 247 247 250 256 256 252 254 254 252 245 249 253 254 252 251 252 258 265 269 268 264 266 267 268 267 264 263 264 267 272 272 273 276 276 277 278 277 278 281 284 286 289 293 295 295 295 296 298 299 299 295 294
216 220 222 221 225 228 235 241 244 244 246 249 251 255 259 257 254 255 254 248 242 240 242 244 244 242 242 242 242 243 249 253 249 246 247 252 256 255 253 253 250 243 243 248 252 251 248 245 248 253 258 259 261 263 263 265 267 268 267 266 268 270 271 272 275 279 282 285 284 283 284 285 287 287 289 289 290 291 292 294 295 296 296 295 294
216 219 223 226 225 228 233 238 243 246 247 248 250 254 255 253 251 251 249 248 246 244 244 246 246 245 245 246 248 248 247 248 250 251 250 248 242 238 236 237 245 251 247 235 236 238 240 243 243 246 247 251 258 263 266 267 267 267 266 266 266 269 270 271 274 276 278 281 282 283 285 285 286 287 288 286 285 287 288 289 289 290 289 289 290
217 220 224 227 228 229 232 235 238 243 245 245 248 251 251 250 250 250 249 249 249 248 246 246 246 246 244 243 240 243 248 251 249 244 242 242 241 239 237 236 235 237 238 238 238 243 246 245 243 243 245 247 251 256 260 263 264 264 264 264 266 267 267 268 272 277 280 282 283 284 284 284 284 283 283 283 283 284 284 284 284 284 284 284 285
219 221 223 228 230 231 232 234 238 240 244 246 245 244 249 251 251 251 250 249 248 247 245 244 242 240 239 238 240 240 237 240 242 239 235 236 237 238 239 240 240 239 239 236 234 237 243 241 239 239 241 242 242 246 251 257 262 264 265 267 267 268 269 270 271 273 276 277 278 278 278 279 280 281 282 282 283 283 283 283 283 283 284 284 nan
225 224 225 227 230 233 235 237 238 239 241 242 244 243 245 248 252 250 249 249 246 241 238 237 238 240 241 238 237 236 237 239 243 241 239 237 237 237 237 240 243 244 245 243 242 244 247 247 245 245 246 246 246 248 250 250 255 262 266 268 269 269 270 270 271 271 274 276 277 277 277 278 279 279 280 280 281 282 281 281 282 282 nan nan nan
230 230 229 229 231 233 236 239 240 240 241 242 244 244 244 243 243 244 246 248 245 240 236 237 238 241 241 241 241 242 240 238 242 244 240 238 237 236 237 240 243 245 246 245 244 245 248 250 251 251 251 251 251 252 253 254 254 256 259 264 267 267 268 269 269 270 271 274 275 274 274 275 276 277 278 278 279 280 280 281 nan nan nan nan nan
235 234 234 234 234 234 235 238 241 242 242 242 242 243 243 243 243 246 250 251 249 245 242 240 240 240 241 243 244 244 242 239 238 240 237 232 232 235 238 242 244 245 245 246 245 246 248 251 253 254 255 255 254 255 255 255 256 258 258 259 262 265 266 268 269 270 271 273 274 275 274 275 275 277 278 nan nan nan nan nan nan nan nan nan nan
nan nan 237 237 238 236 234 236 239 241 243 243 243 242 242 243 244 247 248 249 248 243 239 239 240 240 239 239 241 242 242 240 238 238 236 232 231 232 235 239 242 243 244 245 245 246 249 251 253 255 256 256 255 255 256 257 258 259 259 261 264 265 267 270 271 272 272 273 274 275 275 275 276 275 276 nan nan nan nan nan nan nan nan nan nan
nan nan nan 238 238 236 236 235 237 239 241 243 244 242 242 243 246 250 253 253 251 248 244 241 240 238 238 238 240 241 241 239 239 239 236 232 233 236 236 236 238 240 242 244 245 247 248 250 252 254 255 255 256 257 258 258 260 261 261 263 265 267 268 270 271 270 270 269 270 272 274 275 275 275 275 276 nan nan nan nan nan nan nan nan nan
nan nan nan nan 236 236 236 236 235 237 240 242 242 241 240 241 244 245 246 249 252 251 249 249 248 243 237 236 238 241 240 239 240 240 238 235 237 239 238 236 236 237 239 241 244 246 248 250 252 254 256 257 257 258 259 259 260 262 263 262 264 264 265 266 271 272 270 269 269 271 272 274 274 275 nan nan nan nan nan nan nan nan nan nan nan
nan nan nan nan nan 237 238 nan nan 237 238 239 241 241 239 239 240 244 246 247 249 250 252 253 253 248 240 236 237 240 242 241 240 240 240 240 243 243 240 237 238 238 239 242 245 247 249 251 252 253 255 257 258 259 261 262 262 263 265 266 264 263 264 267 270 272 271 267 265 269 272 nan nan nan nan nan nan nan nan nan nan nan nan nan nan
nan nan nan nan nan nan nan 240 nan nan 239 241 242 241 240 242 245 247 249 250 252 252 254 257 259 255 248 242 240 241 241 240 238 237 239 243 245 244 242 240 240 241 242 244 247 248 249 251 253 254 255 257 258 260 262 264 264 265 266 264 264 264 265 268 272 272 268 nan 264 nan nan nan nan nan nan nan nan nan nan nan nan nan nan nan nan